Regional Weather Roundup
Issued by NWS Little Rock, AR

Home | Current Version | Previous Version | Graphics & Text | Print | Product List | Glossary On
Versions: 1 2 3 4 5 6 7 8 9 10 11 12 13 14 15 16 17 18 19 20 21 22 23 24 25 26 27 28 29 30 31 32 33 34 35 36 37 38 39 40 41 42 43 44 45 46 47 48 49 50
000
ASUS44 KLZK 101105
RWRLZK

WEATHER ROUNDUP FOR ARKANSAS
NATIONAL WEATHER SERVICE LITTLE ROCK AR
600 AM CDT THU JUL 10 2014

NOTE: "FAIR" INDICATES FEW OR NO CLOUDS BELOW 12,000 FEET WITH NO
SIGNIFICANT WEATHER AND/OR OBSTRUCTIONS TO VISIBILITY.

ARZ001-003-010-029-101200-
NORTHWEST ARKANSAS

CITY           SKY/WX    TMP DP  RH WIND       PRES   REMARKS
FAYETTEVILLE   CLEAR     60  60 100 CALM      30.07R
FORT SMITH     MOCLDY    72  70  93 E8        30.02R
HARRISON       CLEAR     61  59  93 CALM      30.07S
BENTONVILLE    PTCLDY    66  61  82 SE6       30.07R
ROGERS         PTCLDY    68  62  81 E9        30.07R
SILOAM SPGS    PTCLDY    64  57  77 E3        30.06R
HIGHFILL       PTCLDY    64  62  93 CALM      30.06R
$$

ARZ004-005-016-101200-
NORTH CENTRAL ARKANSAS

CITY           SKY/WX    TMP DP  RH WIND       PRES   REMARKS
BATESVILLE     CLEAR     64  63  94 W3        30.05R
FLIPPIN        CLEAR     61  57  88 CALM      30.06F
MTN HOME       CLEAR     63  62  97 CALM      30.05F
$$

ARZ040-041-101200-
WEST CENTRAL ARKANSAS

CITY           SKY/WX    TMP DP  RH WIND       PRES   REMARKS
MENA           CLOUDY    72 N/A N/A CALM      30.05R VSB 3/4
MOUNT IDA      CLOUDY    69  68  96 CALM      30.02F FOG
$$

ARZ009-017-025-026-028-101200-
NORTHEAST ARKANSAS

CITY           SKY/WX    TMP DP  RH WIND       PRES   REMARKS
CORNING        FAIR      66  66 100 N3        30.04R
JONESBORO      CLEAR     68  66  93 N3        30.04R
NEWPORT        FOG       69  69 100 N15       30.05R VSB<1/4
WALNUT RIDGE   CLEAR     66  64  94 NW5       30.03S
BLYTHEVILLE    CLEAR     68  66  93 CALM      30.03F
$$

ARZ022-023-033-042-044-101200-
CENTRAL ARKANSAS

CITY           SKY/WX    TMP DP  RH WIND       PRES   REMARKS
LITTLE ROCK    PTCLDY    71  68  90 SW3       30.04R
N LITTLE ROCK    N/A     72  71  99 SW3       30.04R
JACKSONVILLE   CLEAR     70  69  99 CALM      30.03S
SEARCY         PTCLDY    70  70 100 N5        30.05R FOG
HOT SPRINGS    MOCLDY    72  70  93 E3        30.04S
RUSSELLVILLE   CLEAR     70  68  93 CALM      30.04R FOG
CLINTON        FAIR      64  64 100 CALM      30.06S FOG
$$

ARZ036-101200-
EAST ARKANSAS

CITY           SKY/WX    TMP DP  RH WIND       PRES   REMARKS
WEST MEMPHIS   CLEAR     69  69 100 CALM      30.03R
$$

ARZ050-053-066-070-073-101200-
SOUTHWEST ARKANSAS

CITY           SKY/WX    TMP DP  RH WIND       PRES   REMARKS
ARKADELPHIA    FAIR      73  73 100 VRB3      30.03S
CAMDEN         CLOUDY    72  68  88 E3        30.02S
TEXARKANA      PTCLDY    71  69  93 CALM      30.03R
EL DORADO      LGT RAIN  71  70  96 E5        30.03S
DE QUEEN       PTCLDY    73  71  93 CALM      30.00S
$$

ARZ056-057-069-101200-
SOUTHEAST ARKANSAS

CITY           SKY/WX    TMP DP  RH WIND       PRES   REMARKS
PINE BLUFF     MOCLDY    69  68  96 S3        30.05R
MONTICELLO     CLOUDY    73  71  93 CALM      30.04R

$$





USA.gov is the U.S. government's official web portal to all federal, state and local government web resources and services.